Time,TemperatureF,DewpointF,PressureIn,WindDirection,WindDirectionDegrees,WindSpeedMPH,WindSpeedGustMPH,Humidity,HourlyPrecipIn,Conditions,Clouds,dailyrainin,SoftwareType,DateUTC
2013-02-16 00:01:00,49.7,32.8,30.03,East,93,3.6,4.3,52,0.00,,,0.00,WSDL version 420,2013-02-16 08:01:00,
2013-02-16 00:06:00,49.6,32.8,30.03,SE,138,3.0,4.7,53,0.00,,,0.00,WSDL version 420,2013-02-16 08:06:00,
2013-02-16 00:11:00,49.4,33.2,30.03,South,180,1.9,4.7,54,0.00,,,0.00,WSDL version 420,2013-02-16 08:11:00,
2013-02-16 00:16:00,49.5,33.5,30.03,SSW,198,2.0,2.5,54,0.00,,,0.00,WSDL version 420,2013-02-16 08:16:00,
2013-02-16 00:21:00,49.9,33.7,30.03,SSW,203,1.5,2.7,53,0.00,,,0.00,WSDL version 420,2013-02-16 08:21:00,
2013-02-16 00:26:00,50.2,33.5,30.03,South,180,0.1,2.7,52,0.00,,,0.00,WSDL version 420,2013-02-16 08:26:00,
2013-02-16 00:31:00,50.1,33.2,30.03,South,180,0.1,2.0,53,0.00,,,0.00,WSDL version 420,2013-02-16 08:31:00,
2013-02-16 00:36:00,49.8,33.3,30.03,South,180,1.0,1.6,54,0.00,,,0.00,WSDL version 420,2013-02-16 08:36:00,
2013-02-16 00:41:00,49.8,33.5,30.03,South,180,1.1,1.6,53,0.00,,,0.00,WSDL version 420,2013-02-16 08:41:00,
2013-02-16 00:46:00,49.8,33.4,30.03,SSW,203,1.0,1.6,53,0.00,,,0.00,WSDL version 420,2013-02-16 08:46:00,
2013-02-16 00:51:00,49.6,33.2,30.03,SSW,203,0.0,1.6,53,0.00,,,0.00,WSDL version 420,2013-02-16 08:51:00,
2013-02-16 00:56:00,49.4,33.0,30.03,SSW,203,0.0,0.0,53,0.00,,,0.00,WSDL version 420,2013-02-16 08:56:00,
2013-02-16 01:01:00,49.1,32.7,30.03,SSW,203,0.0,0.0,53,0.00,,,0.00,WSDL version 420,2013-02-16 09:01:00,
2013-02-16 01:06:00,48.9,32.6,30.03,SSW,203,0.1,1.6,53,0.00,,,0.00,WSDL version 420,2013-02-16 09:06:00,
2013-02-16 01:11:00,48.8,33.0,30.03,SSW,203,0.5,2.2,54,0.00,,,0.00,WSDL version 420,2013-02-16 09:11:00,
2013-02-16 01:16:00,48.7,32.9,30.03,SE,135,0.0,2.2,54,0.00,,,0.00,WSDL version 420,2013-02-16 09:16:00,
2013-02-16 01:21:00,48.8,33.5,30.03,SE,135,0.0,1.6,56,0.00,,,0.00,WSDL version 420,2013-02-16 09:21:00,
2013-02-16 01:26:00,48.7,33.8,30.03,SSE,158,1.0,2.0,56,0.00,,,0.00,WSDL version 420,2013-02-16 09:26:00,
2013-02-16 01:31:00,48.6,33.6,30.03,SE,146,0.8,2.0,56,0.00,,,0.00,WSDL version 420,2013-02-16 09:31:00,
2013-02-16 01:36:00,48.4,33.4,30.03,SE,140,1.2,2.2,56,0.00,,,0.00,WSDL version 420,2013-02-16 09:36:00,
2013-02-16 01:41:00,48.2,33.3,30.03,SE,135,1.1,2.2,56,0.00,,,0.00,WSDL version 420,2013-02-16 09:41:00,
2013-02-16 01:46:00,48.1,33.4,30.03,ESE,115,1.0,2.0,57,0.00,,,0.00,WSDL version 420,2013-02-16 09:46:00,
2013-02-16 01:51:00,48.0,33.6,30.03,ESE,113,0.4,2.0,58,0.00,,,0.00,WSDL version 420,2013-02-16 09:51:00,
2013-02-16 01:56:00,47.8,33.8,30.03,SE,135,0.9,2.0,58,0.00,,,0.00,WSDL version 420,2013-02-16 09:56:00,
2013-02-16 02:01:00,47.8,34.2,30.03,SE,135,0.0,2.0,60,0.00,,,0.00,WSDL version 420,2013-02-16 10:01:00,
2013-02-16 02:06:00,47.8,35.1,30.03,SSE,158,1.0,2.0,62,0.00,,,0.00,WSDL version 420,2013-02-16 10:06:00,
2013-02-16 02:11:00,47.7,35.3,30.03,SSE,158,0.0,2.0,62,0.00,,,0.00,WSDL version 420,2013-02-16 10:11:00,
2013-02-16 02:16:00,47.5,35.3,30.03,SSE,158,0.0,1.6,64,0.00,,,0.00,WSDL version 420,2013-02-16 10:16:00,
2013-02-16 02:21:00,47.3,35.1,30.03,SSE,158,0.0,1.6,63,0.00,,,0.00,WSDL version 420,2013-02-16 10:21:00,
2013-02-16 02:26:00,47.3,35.4,30.03,SSE,158,0.0,0.0,63,0.00,,,0.00,WSDL version 420,2013-02-16 10:26:00,
2013-02-16 02:31:00,47.4,35.8,30.00,SSW,197,0.2,2.0,65,0.00,,,0.00,WSDL version 420,2013-02-16 10:31:00,
2013-02-16 02:36:00,47.3,36.3,30.00,NNW,338,1.4,2.7,67,0.00,,,0.00,WSDL version 420,2013-02-16 10:36:00,
2013-02-16 02:41:00,47.5,37.8,30.00,North,357,1.3,2.7,70,0.00,,,0.00,WSDL version 420,2013-02-16 10:41:00,
2013-02-16 02:46:00,47.6,38.6,30.00,North,358,1.4,2.5,73,0.00,,,0.00,WSDL version 420,2013-02-16 10:46:00,
2013-02-16 02:51:00,47.4,38.9,30.00,East,90,1.0,2.5,72,0.00,,,0.00,WSDL version 420,2013-02-16 10:51:00,
2013-02-16 02:56:00,47.3,38.5,30.00,East,90,0.0,2.0,71,0.00,,,0.00,WSDL version 420,2013-02-16 10:56:00,
2013-02-16 03:01:00,47.0,38.7,30.00,ESE,105,0.2,2.0,72,0.00,,,0.00,WSDL version 420,2013-02-16 11:01:00,
2013-02-16 03:06:00,46.8,38.0,30.00,East,93,2.3,2.7,71,0.00,,,0.00,WSDL version 420,2013-02-16 11:06:00,
2013-02-16 03:11:00,46.8,37.9,30.00,East,90,1.6,2.7,71,0.00,,,0.00,WSDL version 420,2013-02-16 11:11:00,
2013-02-16 03:16:00,46.6,37.9,30.00,East,101,2.0,2.7,71,0.00,,,0.00,WSDL version 420,2013-02-16 11:16:00,
2013-02-16 03:21:00,46.6,37.6,30.00,East,90,2.9,3.6,71,0.00,,,0.00,WSDL version 420,2013-02-16 11:21:00,
2013-02-16 03:26:00,46.6,38.1,30.00,ESE,107,3.7,4.7,72,0.00,,,0.00,WSDL version 420,2013-02-16 11:26:00,
2013-02-16 03:31:00,46.7,38.8,30.00,ESE,104,4.0,4.9,75,0.00,,,0.00,WSDL version 420,2013-02-16 11:31:00,
2013-02-16 03:36:00,46.7,39.2,30.00,ESE,110,4.2,4.9,75,0.00,,,0.00,WSDL version 420,2013-02-16 11:36:00,
2013-02-16 03:41:00,46.6,39.1,30.00,East,101,5.1,6.0,75,0.00,,,0.00,WSDL version 420,2013-02-16 11:41:00,
2013-02-16 03:46:00,46.4,39.0,30.00,East,88,4.8,6.0,75,0.00,,,0.00,WSDL version 420,2013-02-16 11:46:00,
2013-02-16 03:51:00,46.6,39.2,30.00,East,96,4.4,5.8,75,0.00,,,0.00,WSDL version 420,2013-02-16 11:51:00,
2013-02-16 03:56:00,47.0,39.6,30.00,East,95,4.3,5.4,75,0.00,,,0.00,WSDL version 420,2013-02-16 11:56:00,
2013-02-16 04:01:00,47.4,39.8,30.00,East,98,4.3,5.6,74,0.00,,,0.00,WSDL version 420,2013-02-16 12:01:00,
2013-02-16 04:06:00,47.6,39.5,30.00,ESE,107,3.5,5.8,73,0.00,,,0.00,WSDL version 420,2013-02-16 12:06:00,
2013-02-16 04:11:00,47.7,39.2,30.00,ESE,120,3.5,5.8,72,0.00,,,0.00,WSDL version 420,2013-02-16 12:11:00,
2013-02-16 04:16:00,47.7,38.9,30.00,ESE,118,4.1,5.4,71,0.00,,,0.00,WSDL version 420,2013-02-16 12:16:00,
2013-02-16 04:21:00,47.7,38.7,30.00,ESE,105,4.1,5.4,71,0.00,,,0.00,WSDL version 420,2013-02-16 12:21:00,
2013-02-16 04:26:00,47.7,38.7,30.00,ESE,107,4.6,5.4,71,0.00,,,0.00,WSDL version 420,2013-02-16 12:26:00,
2013-02-16 04:31:00,47.7,38.7,30.00,East,98,3.8,5.4,71,0.00,,,0.00,WSDL version 420,2013-02-16 12:31:00,
2013-02-16 04:36:00,47.7,38.7,30.00,East,90,3.5,4.3,71,0.00,,,0.00,WSDL version 420,2013-02-16 12:36:00,
2013-02-16 04:41:00,47.7,38.9,30.00,East,90,5.6,7.4,72,0.00,,,0.00,WSDL version 420,2013-02-16 12:41:00,
2013-02-16 04:46:00,47.8,39.4,30.00,East,93,4.5,7.4,72,0.00,,,0.00,WSDL version 420,2013-02-16 12:46:00,
2013-02-16 04:51:00,47.7,39.1,30.00,East,98,4.4,7.4,72,0.00,,,0.00,WSDL version 420,2013-02-16 12:51:00,
2013-02-16 04:56:00,47.5,38.9,30.00,East,100,4.8,7.6,72,0.00,,,0.00,WSDL version 420,2013-02-16 12:56:00,
2013-02-16 05:01:00,47.7,39.4,29.97,East,84,4.9,7.6,73,0.00,,,0.00,WSDL version 420,2013-02-16 13:01:00,
2013-02-16 05:06:00,47.8,39.5,29.97,East,84,4.1,7.2,73,0.00,,,0.00,WSDL version 420,2013-02-16 13:06:00,
2013-02-16 05:11:00,47.9,39.5,29.97,ENE,78,3.8,7.2,73,0.00,,,0.00,WSDL version 420,2013-02-16 13:11:00,
2013-02-16 05:16:00,48.1,39.8,29.97,East,79,3.7,6.0,73,0.00,,,0.00,WSDL version 420,2013-02-16 13:16:00,
2013-02-16 05:21:00,48.2,39.6,29.97,ENE,68,2.6,6.0,72,0.00,,,0.00,WSDL version 420,2013-02-16 13:21:00,
2013-02-16 05:26:00,48.2,39.6,29.97,East,84,2.6,5.8,72,0.00,,,0.00,WSDL version 420,2013-02-16 13:26:00,
2013-02-16 05:31:00,48.1,39.5,30.00,East,85,3.0,5.4,72,0.00,,,0.00,WSDL version 420,2013-02-16 13:31:00,
2013-02-16 05:36:00,48.0,39.4,30.00,East,93,2.7,5.4,72,0.00,,,0.00,WSDL version 420,2013-02-16 13:36:00,
2013-02-16 05:41:00,48.0,39.2,30.00,ENE,73,2.2,4.0,71,0.00,,,0.00,WSDL version 420,2013-02-16 13:41:00,
2013-02-16 05:46:00,47.8,38.9,30.00,ENE,73,1.8,4.0,71,0.00,,,0.00,WSDL version 420,2013-02-16 13:46:00,
2013-02-16 05:51:00,47.7,38.7,30.00,East,79,2.4,3.1,71,0.00,,,0.00,WSDL version 420,2013-02-16 13:51:00,
2013-02-16 05:56:00,47.7,38.7,30.00,East,83,2.4,3.1,71,0.00,,,0.00,WSDL version 420,2013-02-16 13:56:00,
2013-02-16 06:01:00,47.8,39.1,29.97,East,98,3.6,5.4,73,0.00,,,0.00,WSDL version 420,2013-02-16 14:01:00,
2013-02-16 06:06:00,47.9,39.5,29.97,East,90,4.6,6.7,73,0.00,,,0.00,WSDL version 420,2013-02-16 14:06:00,
2013-02-16 06:11:00,48.0,39.7,29.97,East,87,3.5,6.7,73,0.00,,,0.00,WSDL version 420,2013-02-16 14:11:00,
2013-02-16 06:16:00,48.0,39.6,30.00,East,85,1.9,5.8,72,0.00,,,0.00,WSDL version 420,2013-02-16 14:16:00,
2013-02-16 06:21:00,47.9,39.3,30.00,ENE,68,0.0,3.8,72,0.00,,,0.00,WSDL version 420,2013-02-16 14:21:00,
2013-02-16 06:26:00,47.8,39.0,30.00,ENE,68,0.0,1.3,71,0.00,,,0.00,WSDL version 420,2013-02-16 14:26:00,
2013-02-16 06:31:00,47.5,39.0,30.00,ENE,68,0.1,2.0,72,0.00,,,0.00,WSDL version 420,2013-02-16 14:31:00,
2013-02-16 06:36:00,47.4,38.7,30.00,ENE,68,0.0,2.0,71,0.00,,,0.00,WSDL version 420,2013-02-16 14:36:00,
2013-02-16 06:41:00,47.3,38.7,30.00,East,90,0.1,2.2,72,0.00,,,0.00,WSDL version 420,2013-02-16 14:41:00,
2013-02-16 06:46:00,47.1,38.6,30.00,East,87,0.3,2.2,72,0.00,,,0.00,WSDL version 420,2013-02-16 14:46:00,
2013-02-16 06:51:00,47.3,39.0,30.00,West,270,0.0,1.6,73,0.00,,,0.00,WSDL version 420,2013-02-16 14:51:00,
2013-02-16 06:56:00,47.2,39.0,30.00,West,270,0.0,0.0,73,0.00,,,0.00,WSDL version 420,2013-02-16 14:56:00,
2013-02-16 07:01:00,47.0,38.8,30.00,West,270,0.0,0.0,73,0.00,,,0.00,WSDL version 420,2013-02-16 15:01:00,
2013-02-16 07:06:00,46.8,38.5,30.00,South,180,0.0,1.3,72,0.00,,,0.00,WSDL version 420,2013-02-16 15:06:00,
2013-02-16 07:11:00,46.8,38.6,30.00,East,82,3.1,4.0,73,0.00,,,0.00,WSDL version 420,2013-02-16 15:11:00,
2013-02-16 07:16:00,47.2,39.2,30.00,SE,125,3.2,4.3,74,0.00,,,0.00,WSDL version 420,2013-02-16 15:16:00,
2013-02-16 07:21:00,47.5,39.6,30.00,NW,315,0.6,4.3,74,0.00,,,0.00,WSDL version 420,2013-02-16 15:21:00,
2013-02-16 07:26:00,47.5,39.6,30.00,NNW,340,0.0,2.5,74,0.00,,,0.00,WSDL version 420,2013-02-16 15:26:00,
2013-02-16 07:31:00,47.5,39.6,30.00,East,88,0.2,2.0,74,0.00,,,0.00,WSDL version 420,2013-02-16 15:31:00,
2013-02-16 07:36:00,47.5,39.6,30.00,ESE,110,2.5,3.4,74,0.00,,,0.00,WSDL version 420,2013-02-16 15:36:00,
2013-02-16 07:41:00,47.7,39.7,30.00,ESE,108,3.7,4.0,74,0.00,,,0.00,WSDL version 420,2013-02-16 15:41:00,
2013-02-16 07:46:00,48.1,40.6,30.00,East,93,3.6,4.7,75,0.00,,,0.00,WSDL version 420,2013-02-16 15:46:00,
2013-02-16 07:51:00,48.6,41.4,30.00,East,85,3.1,4.9,76,0.00,,,0.00,WSDL version 420,2013-02-16 15:51:00,
2013-02-16 07:56:00,49.1,41.8,30.00,East,93,2.3,4.9,75,0.00,,,0.00,WSDL version 420,2013-02-16 15:56:00,
2013-02-16 08:01:00,49.6,42.0,30.00,East,83,1.7,3.8,75,0.00,,,0.00,WSDL version 420,2013-02-16 16:01:00,
2013-02-16 08:06:00,50.0,41.9,30.00,East,93,2.0,4.0,73,0.00,,,0.00,WSDL version 420,2013-02-16 16:06:00,
2013-02-16 08:11:00,50.3,41.9,30.00,East,93,2.3,4.0,72,0.00,,,0.00,WSDL version 420,2013-02-16 16:11:00,
2013-02-16 08:16:00,50.8,42.0,30.00,East,93,2.3,4.3,71,0.00,,,0.00,WSDL version 420,2013-02-16 16:16:00,
2013-02-16 08:21:00,51.2,42.2,30.00,East,82,1.8,4.3,71,0.00,,,0.00,WSDL version 420,2013-02-16 16:21:00,
2013-02-16 08:26:00,51.9,42.2,30.00,ENE,73,1.7,3.4,68,0.00,,,0.00,WSDL version 420,2013-02-16 16:26:00,
2013-02-16 08:31:00,52.8,42.5,30.00,ENE,70,2.4,3.6,68,0.00,,,0.00,WSDL version 420,2013-02-16 16:31:00,
2013-02-16 08:36:00,53.8,42.6,30.00,ENE,68,2.6,4.0,65,0.00,,,0.00,WSDL version 420,2013-02-16 16:36:00,
2013-02-16 08:41:00,54.6,41.8,30.00,ENE,60,2.6,4.7,59,0.00,,,0.00,WSDL version 420,2013-02-16 16:41:00,
2013-02-16 08:46:00,55.1,40.0,30.00,East,96,3.8,7.4,56,0.00,,,0.00,WSDL version 420,2013-02-16 16:46:00,
2013-02-16 08:51:00,55.9,39.2,30.00,East,90,3.7,7.4,53,0.00,,,0.00,WSDL version 420,2013-02-16 16:51:00,
2013-02-16 08:56:00,57.2,39.4,30.00,East,87,5.0,7.4,51,0.00,,,0.00,WSDL version 420,2013-02-16 16:56:00,
2013-02-16 09:01:00,58.3,40.0,30.00,East,80,3.9,7.4,50,0.00,,,0.00,WSDL version 420,2013-02-16 17:01:00,
2013-02-16 09:06:00,59.1,39.7,30.00,East,101,2.7,6.0,49,0.00,,,0.00,WSDL version 420,2013-02-16 17:06:00,
2013-02-16 09:16:00,59.6,38.7,30.00,East,85,2.8,6.5,46,0.00,,,0.00,WSDL version 420,2013-02-16 17:16:00,
2013-02-16 09:21:00,59.8,38.5,30.00,ENE,76,3.0,7.6,45,0.00,,,0.00,WSDL version 420,2013-02-16 17:21:00,
2013-02-16 09:26:00,59.4,38.1,30.00,ENE,63,4.5,7.8,45,0.00,,,0.00,WSDL version 420,2013-02-16 17:26:00,
2013-02-16 09:31:00,59.7,38.3,29.97,East,84,3.4,7.8,45,0.00,,,0.00,WSDL version 420,2013-02-16 17:31:00,
2013-02-16 09:36:00,60.6,39.0,29.97,ENE,78,3.2,5.8,44,0.00,,,0.00,WSDL version 420,2013-02-16 17:36:00,
2013-02-16 09:41:00,61.6,39.9,29.97,NE,51,2.6,5.8,45,0.00,,,0.00,WSDL version 420,2013-02-16 17:41:00,
2013-02-16 09:46:00,62.7,39.9,30.00,ENE,78,2.7,7.8,43,0.00,,,0.00,WSDL version 420,2013-02-16 17:46:00,
2013-02-16 09:51:00,63.2,39.4,30.00,ENE,73,2.8,7.8,41,0.00,,,0.00,WSDL version 420,2013-02-16 17:51:00,
2013-02-16 09:56:00,63.8,39.1,30.00,East,93,2.6,7.8,40,0.00,,,0.00,WSDL version 420,2013-02-16 17:56:00,
2013-02-16 10:01:00,63.9,38.6,29.97,ENE,58,4.1,7.4,39,0.00,,,0.00,WSDL version 420,2013-02-16 18:01:00,
2013-02-16 10:06:00,64.2,38.4,29.97,ENE,62,3.5,7.6,38,0.00,,,0.00,WSDL version 420,2013-02-16 18:06:00,
2013-02-16 10:11:00,64.3,38.2,29.97,East,95,4.7,8.9,38,0.00,,,0.00,WSDL version 420,2013-02-16 18:11:00,
2013-02-16 10:16:00,64.4,38.4,29.97,ENE,68,3.0,8.9,39,0.00,,,0.00,WSDL version 420,2013-02-16 18:16:00,
2013-02-16 10:21:00,64.5,38.4,29.97,NE,45,3.4,6.5,39,0.00,,,0.00,WSDL version 420,2013-02-16 18:21:00,
2013-02-16 10:26:00,64.7,38.9,29.97,ENE,63,2.5,6.5,38,0.00,,,0.00,WSDL version 420,2013-02-16 18:26:00,
2013-02-16 10:31:00,65.4,39.4,29.97,NE,38,3.5,4.9,38,0.00,,,0.00,WSDL version 420,2013-02-16 18:31:00,
2013-02-16 10:36:00,65.2,38.8,29.97,ENE,73,5.6,8.1,37,0.00,,,0.00,WSDL version 420,2013-02-16 18:36:00,
2013-02-16 10:41:00,65.7,39.1,29.97,ENE,76,4.6,8.1,38,0.00,,,0.00,WSDL version 420,2013-02-16 18:41:00,
2013-02-16 10:58:00,67.0,39.4,-100.00,East,79,5.8,10.5,36,0.00,,,0.00,WSDL version 420,2013-02-16 18:58:00,
2013-02-16 11:02:00,66.4,38.6,29.97,NE,35,3.6,10.5,36,0.00,,,0.00,WSDL version 420,2013-02-16 19:02:00,
2013-02-16 11:07:00,66.7,39.2,29.97,NE,48,3.1,8.5,37,0.00,,,0.00,WSDL version 420,2013-02-16 19:07:00,
2013-02-16 11:12:00,67.2,39.6,29.97,ENE,63,3.8,6.5,36,0.00,,,0.00,WSDL version 420,2013-02-16 19:12:00,
2013-02-16 11:17:00,67.9,39.9,29.97,NE,45,2.9,6.5,36,0.00,,,0.00,WSDL version 420,2013-02-16 19:17:00,
2013-02-16 11:22:00,67.2,38.9,29.97,NE,53,4.1,5.8,35,0.00,,,0.00,WSDL version 420,2013-02-16 19:22:00,
2013-02-16 11:27:00,67.7,39.4,29.97,NNE,25,3.0,5.8,35,0.00,,,0.00,WSDL version 420,2013-02-16 19:27:00,
2013-02-16 11:32:00,67.9,39.4,29.97,East,84,4.0,9.6,35,0.00,,,0.00,WSDL version 420,2013-02-16 19:32:00,
2013-02-16 11:37:00,68.8,39.9,29.97,ENE,58,4.3,9.6,34,0.00,,,0.00,WSDL version 420,2013-02-16 19:37:00,
2013-02-16 11:42:00,68.5,39.2,29.97,NE,53,3.4,8.7,34,0.00,,,0.00,WSDL version 420,2013-02-16 19:42:00,
2013-02-16 11:47:00,67.5,38.8,29.97,ENE,68,3.6,8.7,35,0.00,,,0.00,WSDL version 420,2013-02-16 19:47:00,
2013-02-16 11:52:00,67.5,38.9,29.97,NE,42,3.5,7.4,35,0.00,,,0.00,WSDL version 420,2013-02-16 19:52:00,
2013-02-16 12:04:00,67.3,38.7,-100.00,ENE,58,3.9,6.0,35,0.00,,,0.00,WSDL version 420,2013-02-16 20:04:00,
2013-02-16 12:09:00,68.1,39.5,29.94,NE,53,3.9,6.3,35,0.00,,,0.00,WSDL version 420,2013-02-16 20:09:00,
2013-02-16 12:14:00,68.3,38.9,29.94,NE,48,4.6,7.2,34,0.00,,,0.00,WSDL version 420,2013-02-16 20:14:00,
2013-02-16 12:19:00,68.1,38.7,29.94,ENE,60,4.2,7.2,34,0.00,,,0.00,WSDL version 420,2013-02-16 20:19:00,
2013-02-16 12:24:00,68.1,38.7,29.94,NE,50,3.5,6.5,34,0.00,,,0.00,WSDL version 420,2013-02-16 20:24:00,
2013-02-16 12:29:00,68.7,39.4,29.94,NE,48,3.0,6.5,34,0.00,,,0.00,WSDL version 420,2013-02-16 20:29:00,
2013-02-16 12:34:00,69.4,39.8,29.94,NE,48,3.8,4.9,34,0.00,,,0.00,WSDL version 420,2013-02-16 20:34:00,
2013-02-16 12:39:00,69.4,39.9,29.94,NNE,33,3.5,5.8,34,0.00,,,0.00,WSDL version 420,2013-02-16 20:39:00,
2013-02-16 12:44:00,69.1,39.6,29.94,ENE,58,3.3,7.4,34,0.00,,,0.00,WSDL version 420,2013-02-16 20:44:00,
2013-02-16 12:49:00,69.9,40.3,29.94,NE,51,3.1,7.4,34,0.00,,,0.00,WSDL version 420,2013-02-16 20:49:00,
2013-02-16 12:54:00,69.6,40.0,29.94,NNE,28,3.5,7.4,34,0.00,,,0.00,WSDL version 420,2013-02-16 20:54:00,
2013-02-16 12:59:00,68.8,39.3,29.94,NE,38,3.1,4.9,34,0.00,,,0.00,WSDL version 420,2013-02-16 20:59:00,
2013-02-16 13:04:00,69.3,39.8,29.91,NNE,31,4.1,6.0,34,0.00,,,0.00,WSDL version 420,2013-02-16 21:04:00,
2013-02-16 13:09:00,69.5,39.9,29.91,NE,43,3.2,6.0,34,0.00,,,0.00,WSDL version 420,2013-02-16 21:09:00,
2013-02-16 13:14:00,69.5,39.9,29.91,NE,45,3.4,6.0,34,0.00,,,0.00,WSDL version 420,2013-02-16 21:14:00,
2013-02-16 13:19:00,69.4,39.9,29.91,NE,45,3.6,7.6,34,0.00,,,0.00,WSDL version 420,2013-02-16 21:19:00,
2013-02-16 13:24:00,68.7,39.2,29.91,NE,39,4.2,7.6,34,0.00,,,0.00,WSDL version 420,2013-02-16 21:24:00,
2013-02-16 13:29:00,68.4,39.0,29.91,NE,45,4.0,5.8,34,0.00,,,0.00,WSDL version 420,2013-02-16 21:29:00,
2013-02-16 13:34:00,69.2,39.8,29.91,NNE,28,3.3,5.8,34,0.00,,,0.00,WSDL version 420,2013-02-16 21:34:00,
2013-02-16 13:39:00,68.8,39.3,29.91,NE,48,3.0,4.9,34,0.00,,,0.00,WSDL version 420,2013-02-16 21:39:00,
2013-02-16 13:44:00,69.1,39.6,29.91,NNE,30,4.2,6.5,34,0.00,,,0.00,WSDL version 420,2013-02-16 21:44:00,
2013-02-16 13:49:00,68.8,39.3,29.88,NE,42,3.1,6.5,34,0.00,,,0.00,WSDL version 420,2013-02-16 21:49:00,
2013-02-16 13:54:00,69.1,39.6,29.88,NNE,33,3.9,5.6,34,0.00,,,0.00,WSDL version 420,2013-02-16 21:54:00,
2013-02-16 13:59:00,68.8,39.3,29.88,NE,37,3.7,6.7,34,0.00,,,0.00,WSDL version 420,2013-02-16 21:59:00,
2013-02-16 14:04:00,69.4,40.0,29.91,East,79,3.9,7.2,34,0.00,,,0.00,WSDL version 420,2013-02-16 22:04:00,
2013-02-16 14:09:00,70.2,40.3,29.91,East,100,4.6,8.1,33,0.00,,,0.00,WSDL version 420,2013-02-16 22:09:00,
2013-02-16 14:14:00,70.3,39.9,29.91,NE,48,3.7,8.1,33,0.00,,,0.00,WSDL version 420,2013-02-16 22:14:00,
2013-02-16 14:19:00,70.4,40.0,29.88,ENE,60,3.3,6.0,33,0.00,,,0.00,WSDL version 420,2013-02-16 22:19:00,
2013-02-16 14:24:00,70.4,40.0,29.88,ENE,65,3.2,8.5,33,0.00,,,0.00,WSDL version 420,2013-02-16 22:24:00,
2013-02-16 14:29:00,69.7,39.8,29.88,NNE,20,3.4,8.5,34,0.00,,,0.00,WSDL version 420,2013-02-16 22:29:00,
2013-02-16 14:34:00,69.5,40.0,29.88,ENE,62,3.5,4.9,34,0.00,,,0.00,WSDL version 420,2013-02-16 22:34:00,
2013-02-16 14:39:00,69.9,40.3,29.88,East,80,2.5,7.2,34,0.00,,,0.00,WSDL version 420,2013-02-16 22:39:00,
2013-02-16 14:44:00,70.3,40.6,29.88,ENE,70,3.1,7.2,34,0.00,,,0.00,WSDL version 420,2013-02-16 22:44:00,
2013-02-16 14:49:00,70.0,40.4,29.85,NE,42,3.2,6.0,34,0.00,,,0.00,WSDL version 420,2013-02-16 22:49:00,
2013-02-16 14:54:00,70.1,40.4,29.85,NE,45,2.5,4.0,34,0.00,,,0.00,WSDL version 420,2013-02-16 22:54:00,
2013-02-16 14:59:00,70.3,40.7,29.85,East,90,2.8,8.1,34,0.00,,,0.00,WSDL version 420,2013-02-16 22:59:00,
2013-02-16 15:04:00,71.0,41.3,29.88,East,98,3.6,8.1,34,0.00,,,0.00,WSDL version 420,2013-02-16 23:04:00,
2013-02-16 15:09:00,71.0,41.2,29.88,East,85,2.7,6.0,34,0.00,,,0.00,WSDL version 420,2013-02-16 23:09:00,
2013-02-16 15:14:00,70.9,41.1,29.88,ENE,70,2.7,5.4,34,0.00,,,0.00,WSDL version 420,2013-02-16 23:14:00,
2013-02-16 15:19:00,70.5,40.8,29.85,NE,45,2.4,5.4,34,0.00,,,0.00,WSDL version 420,2013-02-16 23:19:00,
2013-02-16 15:24:00,69.9,40.3,29.85,NNE,20,2.8,4.3,34,0.00,,,0.00,WSDL version 420,2013-02-16 23:24:00,
2013-02-16 15:29:00,69.4,39.9,29.85,NNE,33,2.7,4.3,34,0.00,,,0.00,WSDL version 420,2013-02-16 23:29:00,
2013-02-16 15:34:00,69.1,39.6,29.88,NNE,28,2.7,4.3,34,0.00,,,0.00,WSDL version 420,2013-02-16 23:34:00,
2013-02-16 15:44:00,68.8,39.3,29.88,East,90,1.6,4.0,34,0.00,,,0.00,WSDL version 420,2013-02-16 23:44:00,
2013-02-16 15:49:00,68.6,39.1,29.85,NNW,345,2.3,5.4,34,0.00,,,0.00,WSDL version 420,2013-02-16 23:49:00,
2013-02-16 15:59:00,67.6,39.0,29.85,North,6,3.9,5.8,35,0.00,,,0.00,WSDL version 420,2013-02-16 23:59:00,
2013-02-16 16:04:00,67.3,38.7,29.85,NNW,335,3.4,5.8,35,0.00,,,0.00,WSDL version 420,2013-02-17 00:04:00,
2013-02-16 16:09:00,66.6,38.8,29.85,NW,307,2.8,4.7,37,0.00,,,0.00,WSDL version 420,2013-02-17 00:09:00,
2013-02-16 16:14:00,65.2,38.9,29.85,WNW,300,2.9,4.3,38,0.00,,,0.00,WSDL version 420,2013-02-17 00:14:00,
2013-02-16 16:19:00,64.1,39.0,29.85,NW,323,2.7,4.3,40,0.00,,,0.00,WSDL version 420,2013-02-17 00:19:00,
2013-02-16 16:24:00,63.8,39.4,29.85,NNW,328,2.1,4.3,41,0.00,,,0.00,WSDL version 420,2013-02-17 00:24:00,
2013-02-16 16:29:00,63.4,39.5,29.85,NW,312,2.5,4.3,41,0.00,,,0.00,WSDL version 420,2013-02-17 00:29:00,
2013-02-16 16:34:00,63.2,39.5,29.85,NW,320,1.1,3.4,42,0.00,,,0.00,WSDL version 420,2013-02-17 00:34:00,
2013-02-16 16:39:00,63.1,40.1,29.85,NW,325,1.5,2.9,43,0.00,,,0.00,WSDL version 420,2013-02-17 00:39:00,
2013-02-16 16:44:00,63.3,40.4,29.85,North,357,2.0,2.9,43,0.00,,,0.00,WSDL version 420,2013-02-17 00:44:00,
2013-02-16 16:49:00,63.5,40.6,29.85,NNW,330,2.3,3.1,43,0.00,,,0.00,WSDL version 420,2013-02-17 00:49:00,
2013-02-16 16:54:00,63.5,40.6,29.85,NNW,348,1.9,3.1,43,0.00,,,0.00,WSDL version 420,2013-02-17 00:54:00,
2013-02-16 16:59:00,63.5,40.5,29.85,NNW,340,1.8,2.5,42,0.00,,,0.00,WSDL version 420,2013-02-17 00:59:00,
2013-02-16 17:04:00,63.5,40.1,29.85,NNW,338,1.0,2.5,43,0.00,,,0.00,WSDL version 420,2013-02-17 01:04:00,
2013-02-16 17:09:00,63.4,40.5,29.85,WNW,293,0.0,1.6,43,0.00,,,0.00,WSDL version 420,2013-02-17 01:09:00,
2013-02-16 17:14:00,63.1,40.3,29.85,WNW,284,0.0,1.6,43,0.00,,,0.00,WSDL version 420,2013-02-17 01:14:00,
2013-02-16 17:19:00,63.0,40.2,29.85,West,270,0.0,1.6,43,0.00,,,0.00,WSDL version 420,2013-02-17 01:19:00,
2013-02-16 17:24:00,62.9,40.3,29.85,West,270,0.0,1.3,43,0.00,,,0.00,WSDL version 420,2013-02-17 01:24:00,
2013-02-16 17:29:00,62.6,40.4,29.85,West,270,0.8,1.3,44,0.00,,,0.00,WSDL version 420,2013-02-17 01:29:00,
2013-02-16 17:34:00,62.4,40.3,29.85,West,270,0.0,1.3,45,0.00,,,0.00,WSDL version 420,2013-02-17 01:34:00,
2013-02-16 17:39:00,62.3,40.7,29.85,SW,225,0.0,0.0,45,0.00,,,0.00,WSDL version 420,2013-02-17 01:39:00,
2013-02-16 17:44:00,62.2,40.5,29.85,SW,225,0.0,0.0,44,0.00,,,0.00,WSDL version 420,2013-02-17 01:44:00,
2013-02-16 17:49:00,62.0,40.1,29.85,SW,225,0.0,0.0,44,0.00,,,0.00,WSDL version 420,2013-02-17 01:49:00,
2013-02-16 17:54:00,61.8,39.6,29.85,SW,225,0.0,0.0,44,0.00,,,0.00,WSDL version 420,2013-02-17 01:54:00,
2013-02-16 17:59:00,61.6,39.8,29.85,SW,225,0.0,0.0,45,0.00,,,0.00,WSDL version 420,2013-02-17 01:59:00,
2013-02-16 18:04:00,61.3,39.5,29.85,SW,225,0.0,0.0,45,0.00,,,0.00,WSDL version 420,2013-02-17 02:04:00,
2013-02-16 18:09:00,61.1,39.6,29.85,SSW,203,1.3,1.6,45,0.00,,,0.00,WSDL version 420,2013-02-17 02:09:00,
2013-02-16 18:14:00,60.8,39.5,29.85,SSW,203,1.5,2.0,46,0.00,,,0.00,WSDL version 420,2013-02-17 02:14:00,
2013-02-16 18:19:00,60.6,39.7,29.85,SSW,203,2.0,2.5,46,0.00,,,0.00,WSDL version 420,2013-02-17 02:19:00,
2013-02-16 18:24:00,60.5,39.7,29.85,SSW,213,2.1,2.9,46,0.00,,,0.00,WSDL version 420,2013-02-17 02:24:00,
2013-02-16 18:29:00,60.4,40.0,29.85,SSW,203,1.8,3.1,47,0.00,,,0.00,WSDL version 420,2013-02-17 02:29:00,
2013-02-16 18:34:00,60.2,41.0,29.85,SSW,203,2.8,3.8,50,0.00,,,0.00,WSDL version 420,2013-02-17 02:34:00,
2013-02-16 18:39:00,60.0,41.2,29.85,SSW,203,1.5,3.8,50,0.00,,,0.00,WSDL version 420,2013-02-17 02:39:00,
2013-02-16 18:44:00,59.8,41.0,29.85,SW,218,1.9,2.9,49,0.00,,,0.00,WSDL version 420,2013-02-17 02:44:00,
2013-02-16 18:49:00,59.6,40.5,29.85,SSW,198,0.5,2.9,49,0.00,,,0.00,WSDL version 420,2013-02-17 02:49:00,
2013-02-16 18:54:00,59.3,40.2,29.85,South,188,0.6,2.5,49,0.00,,,0.00,WSDL version 420,2013-02-17 02:54:00,
2013-02-16 18:59:00,59.0,40.2,29.85,NNW,338,2.0,3.8,51,0.00,,,0.00,WSDL version 420,2013-02-17 02:59:00,
2013-02-16 19:04:00,58.5,40.5,29.85,NNE,23,0.0,3.8,51,0.00,,,0.00,WSDL version 420,2013-02-17 03:04:00,
2013-02-16 19:09:00,58.3,40.4,29.85,SSW,203,0.4,2.0,51,0.00,,,0.00,WSDL version 420,2013-02-17 03:09:00,
2013-02-16 19:14:00,57.8,40.4,29.85,South,180,0.4,1.6,52,0.00,,,0.00,WSDL version 420,2013-02-17 03:14:00,
2013-02-16 19:19:00,57.6,40.2,29.85,South,180,0.0,1.6,52,0.00,,,0.00,WSDL version 420,2013-02-17 03:19:00,
2013-02-16 19:24:00,57.5,40.2,29.85,South,188,1.1,2.5,52,0.00,,,0.00,WSDL version 420,2013-02-17 03:24:00,
2013-02-16 19:29:00,57.2,41.1,29.85,South,183,1.8,2.9,56,0.00,,,0.00,WSDL version 420,2013-02-17 03:29:00,
2013-02-16 19:34:00,56.9,41.1,29.85,South,173,0.8,2.9,56,0.00,,,0.00,WSDL version 420,2013-02-17 03:34:00,
2013-02-16 19:39:00,56.8,41.1,29.85,South,180,0.0,2.0,56,0.00,,,0.00,WSDL version 420,2013-02-17 03:39:00,
2013-02-16 19:44:00,56.5,40.8,29.85,WNW,300,0.0,2.5,56,0.00,,,0.00,WSDL version 420,2013-02-17 03:44:00,
2013-02-16 19:49:00,56.3,41.1,29.85,NW,315,0.0,2.5,57,0.00,,,0.00,WSDL version 420,2013-02-17 03:49:00,
2013-02-16 19:54:00,56.1,41.0,29.85,NW,315,0.0,1.1,56,0.00,,,0.00,WSDL version 420,2013-02-17 03:54:00,
2013-02-16 19:59:00,55.7,40.9,29.85,NW,315,1.0,1.6,59,0.00,,,0.00,WSDL version 420,2013-02-17 03:59:00,
2013-02-16 20:04:00,55.5,41.4,29.85,NW,315,0.0,1.6,59,0.00,,,0.00,WSDL version 420,2013-02-17 04:04:00,
2013-02-16 20:09:00,55.3,41.4,29.85,WNW,293,0.0,0.0,60,0.00,,,0.00,WSDL version 420,2013-02-17 04:09:00,
2013-02-16 20:14:00,55.0,41.5,29.85,NW,315,0.0,2.0,61,0.00,,,0.00,WSDL version 420,2013-02-17 04:14:00,
2013-02-16 20:19:00,55.0,41.9,29.85,WSW,248,0.0,2.0,61,0.00,,,0.00,WSDL version 420,2013-02-17 04:19:00,
2013-02-16 20:24:00,54.8,42.1,29.85,WSW,248,0.0,0.0,62,0.00,,,0.00,WSDL version 420,2013-02-17 04:24:00,
2013-02-16 20:29:00,54.6,41.8,29.85,WSW,248,0.0,0.0,62,0.00,,,0.00,WSDL version 420,2013-02-17 04:29:00,
2013-02-16 20:34:00,54.4,41.9,29.85,SSE,158,0.0,1.3,63,0.00,,,0.00,WSDL version 420,2013-02-17 04:34:00,
2013-02-16 20:39:00,54.1,42.1,29.85,SSE,158,0.0,1.3,64,0.00,,,0.00,WSDL version 420,2013-02-17 04:39:00,
2013-02-16 20:44:00,53.8,41.6,29.85,South,185,2.0,2.7,62,0.00,,,0.00,WSDL version 420,2013-02-17 04:44:00,
2013-02-16 20:49:00,53.6,41.3,29.85,NW,313,1.6,3.1,64,0.00,,,0.00,WSDL version 420,2013-02-17 04:49:00,
2013-02-16 20:54:00,53.4,42.0,29.85,WNW,293,0.4,3.1,65,0.00,,,0.00,WSDL version 420,2013-02-17 04:54:00,
2013-02-16 20:59:00,53.2,42.4,29.85,North,354,1.3,2.7,69,0.00,,,0.00,WSDL version 420,2013-02-17 04:59:00,
2013-02-16 21:04:00,52.8,42.8,29.85,NW,323,1.1,2.7,68,0.00,,,0.00,WSDL version 420,2013-02-17 05:04:00,
2013-02-16 21:09:00,52.6,42.8,29.85,NW,315,0.3,2.2,69,0.00,,,0.00,WSDL version 420,2013-02-17 05:09:00,
2013-02-16 21:14:00,52.4,42.6,29.85,SSW,200,0.5,2.2,69,0.00,,,0.00,WSDL version 420,2013-02-17 05:14:00,
2013-02-16 21:19:00,52.2,42.4,29.85,South,180,0.8,2.0,69,0.00,,,0.00,WSDL version 420,2013-02-17 05:19:00,
2013-02-16 21:24:00,52.0,42.2,29.85,South,180,0.0,2.0,70,0.00,,,0.00,WSDL version 420,2013-02-17 05:24:00,
2013-02-16 21:29:00,51.9,42.1,29.85,SSW,200,1.0,3.8,69,0.00,,,0.00,WSDL version 420,2013-02-17 05:29:00,
2013-02-16 21:34:00,51.8,42.0,29.85,SSW,203,0.3,3.8,69,0.00,,,0.00,WSDL version 420,2013-02-17 05:34:00,
2013-02-16 21:39:00,51.7,41.8,29.85,SSW,200,2.4,4.0,70,0.00,,,0.00,WSDL version 420,2013-02-17 05:39:00,
2013-02-16 21:44:00,51.6,43.4,29.85,SSW,198,3.4,5.4,74,0.00,,,0.00,WSDL version 420,2013-02-17 05:44:00,
2013-02-16 21:49:00,51.6,43.6,29.85,SSW,194,3.0,5.4,74,0.00,,,0.00,WSDL version 420,2013-02-17 05:49:00,
2013-02-16 21:54:00,51.6,44.1,29.85,SW,231,3.6,5.8,76,0.00,,,0.00,WSDL version 420,2013-02-17 05:54:00,
2013-02-16 21:59:00,51.5,44.2,29.85,SSW,203,1.7,5.8,75,0.00,,,0.00,WSDL version 420,2013-02-17 05:59:00,
2013-02-16 22:04:00,51.4,43.8,29.85,SW,223,2.3,3.8,75,0.00,,,0.00,WSDL version 420,2013-02-17 06:04:00,
2013-02-16 22:09:00,51.3,43.8,29.85,SW,225,2.4,4.9,76,0.00,,,0.00,WSDL version 420,2013-02-17 06:09:00,
2013-02-16 22:14:00,51.3,43.7,29.85,South,180,1.0,4.9,75,0.00,,,0.00,WSDL version 420,2013-02-17 06:14:00,
2013-02-16 22:19:00,51.2,43.7,29.85,SSW,198,1.5,4.3,75,0.00,,,0.00,WSDL version 420,2013-02-17 06:19:00,
2013-02-16 22:24:00,51.1,43.8,29.85,SSW,203,3.0,4.9,77,0.00,,,0.00,WSDL version 420,2013-02-17 06:24:00,
2013-02-16 22:29:00,51.1,44.7,29.85,SSW,193,3.1,5.6,80,0.00,,,0.00,WSDL version 420,2013-02-17 06:29:00,
2013-02-16 22:34:00,51.0,45.3,29.85,SSW,205,3.5,5.6,81,0.00,,,0.00,WSDL version 420,2013-02-17 06:34:00,
2013-02-16 22:39:00,50.9,45.3,29.85,SSW,200,3.9,5.8,81,0.00,,,0.00,WSDL version 420,2013-02-17 06:39:00,
2013-02-16 22:44:00,50.9,45.6,29.85,SSW,212,4.9,6.3,82,0.00,,,0.00,WSDL version 420,2013-02-17 06:44:00,
2013-02-16 22:49:00,50.9,45.4,29.85,SSW,200,3.5,6.3,81,0.00,,,0.00,WSDL version 420,2013-02-17 06:49:00,
2013-02-16 22:54:00,50.9,45.3,29.85,SSW,205,3.0,6.3,81,0.00,,,0.00,WSDL version 420,2013-02-17 06:54:00,
2013-02-16 22:59:00,50.8,45.2,29.85,SSW,205,2.9,6.3,81,0.00,,,0.00,WSDL version 420,2013-02-17 06:59:00,
2013-02-16 23:04:00,50.7,45.0,29.85,SSW,210,2.6,6.3,81,0.00,,,0.00,WSDL version 420,2013-02-17 07:04:00,
2013-02-16 23:09:00,50.5,44.8,29.85,SW,217,0.8,4.7,80,0.00,,,0.00,WSDL version 420,2013-02-17 07:09:00,
2013-02-16 23:14:00,50.5,44.6,29.85,WSW,250,2.0,4.7,80,0.00,,,0.00,WSDL version 420,2013-02-17 07:14:00,
2013-02-16 23:19:00,50.4,44.4,29.85,SW,219,3.0,4.3,80,0.00,,,0.00,WSDL version 420,2013-02-17 07:19:00,
2013-02-16 23:24:00,50.4,44.4,29.85,WSW,255,1.3,4.3,80,0.00,,,0.00,WSDL version 420,2013-02-17 07:24:00,
2013-02-16 23:29:00,50.3,44.0,29.85,SSW,198,1.3,3.8,79,0.00,,,0.00,WSDL version 420,2013-02-17 07:29:00,
2013-02-16 23:34:00,50.1,43.6,29.85,SSW,208,1.5,3.1,78,0.00,,,0.00,WSDL version 420,2013-02-17 07:34:00,
2013-02-16 23:39:00,49.9,43.5,29.85,SSW,197,2.4,3.6,79,0.00,,,0.00,WSDL version 420,2013-02-17 07:39:00,
2013-02-16 23:44:00,49.8,43.9,29.85,South,169,2.1,4.3,80,0.00,,,0.00,WSDL version 420,2013-02-17 07:44:00,
2013-02-16 23:49:00,49.6,43.8,29.83,SSE,168,1.3,4.3,81,0.00,,,0.00,WSDL version 420,2013-02-17 07:49:00,
2013-02-16 23:54:00,49.5,44.6,29.83,SSW,208,3.0,4.3,84,0.00,,,0.00,WSDL version 420,2013-02-17 07:54:00,
2013-02-16 23:59:00,49.5,45.0,29.83,SSW,203,1.6,4.3,84,0.00,,,0.00,WSDL version 420,2013-02-17 07:59:00,